#timestamp,LO_Frequency,Hit 
1501869615.3,286046992.5,N
1501869635.1,286046992.5,N
1501869636.0,286046992.5,N
1501869655.8,286046993.7,N
1501869675.7,286046992.1,N
1501869695.5,286046991.8,N
1501869715.3,286046992.2,N
1501869735.2,286046991.7,N
1501869755.9,286046991.9,N
1501869775.7,286046993.0,N
1501869795.5,286046992.1,N
1501869815.4,286046994.7,N
1501869835.2,286046992.9,N
1501869855.0,286046992.2,N
1501869855.9,286046992.2,N
1501869875.8,286046992.8,N
1501869895.6,286046991.9,N
1501869915.4,286046992.8,N
1501869935.3,286046994.3,N
1501869955.1,286046996.3,N
1501869975.8,286046994.1,N
1501869995.7,286046993.9,N
1501870015.5,286046994.7,N
1501870035.3,286046993.9,N
1501870055.2,286046992.3,N
1501870075.9,286046994.5,N
1501870095.7,286046992.3,N
1501870115.5,286046993.9,N
1501870135.4,286046993.8,N
1501870155.2,286046996.4,N
1501870175.0,286046991.9,N
1501870175.9,286046991.9,N
1501870195.8,286046994.1,N
1501870215.6,286046993.6,N
1501870235.4,286046993.7,N
1501870255.3,286046994.0,N
1501870275.1,286046992.0,N
1501870276.0,286046992.0,N
1501870295.8,286046994.8,N
1501870315.7,286046993.6,N
1501870335.5,286046996.4,N
1501870355.3,286046994.0,N
1501870375.2,286046994.3,N
1501870395.9,286046993.9,N
1501870415.7,286046994.3,N
1501870435.5,286046994.7,N
1501870455.4,286046992.1,N
1501870475.2,286046994.1,N
1501870495.0,286046993.7,N
1501870495.9,286046993.7,N
1501870515.8,286046994.3,N
1501870535.6,286046993.5,N
1501870555.4,286046993.5,N
1501870575.3,286046993.5,N
1501870595.1,286046993.7,N
1501870596.0,286046993.7,N
1501870615.8,286046994.0,N
1501870635.7,286046993.6,N
1501870655.5,286046993.5,N
1501870675.3,286046993.8,N
1501870695.1,286046991.8,N
1501870715.9,286046993.4,N
1501870735.7,286046994.4,N
1501870755.5,286046994.5,N
1501870775.4,286046994.7,N
1501870795.2,286046992.2,N
1501870815.0,286046991.9,N
1501870815.9,286046991.9,N
1501870835.8,286046994.2,N
1501870855.6,286046994.7,N
1501870875.4,286046991.8,N
1501870895.3,286046992.0,N
1501870915.1,286046992.9,N
1501870916.0,286046992.9,N
1501870935.8,286046992.6,N
1501870955.7,286046993.0,N
1501870975.5,286046992.4,N
1501870995.3,286046994.7,N
1501871015.1,286046991.8,N
1501871035.9,286046994.7,N
1501871055.7,286046991.8,N
1501871075.5,286046996.4,N
1501871095.4,286046994.8,N
1501871115.2,286046996.2,N
1501871135.0,286046994.8,N
1501871135.9,286046994.8,N
1501871155.8,286046994.6,N
1501871175.6,286046993.9,N
1501871195.4,286046993.5,N
1501871215.3,286046996.3,N
1501871235.1,286046994.7,N
1501871236.0,286046994.7,N
1501871255.8,286046994.6,N
1501871275.7,286046994.8,N
1501871295.5,286046996.3,N
1501871315.3,286046994.5,N
1501871335.1,286046996.2,N
1501871355.9,286046995.4,N
1501871375.7,286046993.8,N
1501871395.5,286046993.7,N
1501871415.4,286046994.0,N
1501871435.2,286046995.8,N
1501871455.0,286046996.4,N
1501871455.9,286046996.4,N
1501871475.8,286046995.5,N
1501871495.6,286046995.8,N
1501871515.4,286046994.0,N
1501871535.3,286046993.3,N
1501871555.1,286046994.1,N
1501871556.0,286046994.1,N
1501871575.8,286046996.2,N
1501871595.7,286046993.8,N
1501871615.5,286046994.7,N
1501871635.3,286046994.2,N
1501871655.1,286046994.5,N
1501871675.9,286046991.9,N
1501871695.7,286046991.9,N
1501871715.5,286046992.2,N
1501871735.4,286046993.5,N
1501871755.2,286046994.1,N
1501871775.0,286046996.0,N
1501871775.9,286046996.0,N
1501871795.8,286046993.8,N
1501871815.6,286046994.1,N
1501871835.4,286046994.3,N
1501871855.3,286046994.3,N
1501871875.1,286046993.8,N
1501871876.0,286046993.8,N
1501871895.8,286046991.8,N
1501871915.7,286046994.7,N
1501871935.5,286046993.9,N
1501871955.3,286046994.4,N
1501871975.2,286046993.9,N
1501871995.9,286046993.9,N
1501872015.7,286046995.8,N
1501872035.5,286046996.1,N
1501872055.4,286046995.3,N
1501872075.2,286046995.9,N
1501872095.0,286046995.7,N
1501872095.9,286046995.7,N
1501872115.8,286046996.1,N
1501872135.6,286046995.1,N
1501872155.4,286046995.4,N
1501872175.3,286046997.9,N
1501872195.1,286046996.1,N
1501872215.8,286046995.3,N
1501872235.7,286046995.2,N
1501872255.5,286046995.1,N
1501872275.3,286046995.5,N
1501872295.2,286046996.1,N
1501872315.9,286046996.6,N
1501872335.7,286046996.9,N
1501872355.5,286046996.9,N
1501872375.4,286046996.6,N
1501872395.2,286046997.0,N
1501872415.0,286046996.5,N
1501872415.9,286046996.5,N
1501872435.8,286046996.6,N
1501872455.6,286046996.8,N
1501872475.4,286046999.2,N
1501872495.3,286046997.9,N
1501872515.1,286046997.2,N
1501872516.0,286046997.2,N
1501872535.8,286046995.2,N
1501872555.7,286046998.0,N
1501872575.5,286046997.6,N
1501872595.3,286046997.8,N
1501872615.2,286046997.6,N
1501872635.9,286046995.1,N
1501872655.7,286046995.8,N
1501872675.5,286046995.7,N
1501872695.4,286046996.2,N
1501872715.2,286046994.9,N
1501872735.0,286046996.1,N
1501872735.9,286046996.1,N
1501872755.8,286046994.9,N
1501872775.6,286046993.7,N
1501872795.4,286046996.3,N
1501872815.3,286046996.2,N
1501872835.1,286046997.5,N
1501872836.0,286046997.5,N
1501872855.8,286046995.5,N
1501872875.7,286046995.0,N
1501872895.5,286046995.5,N
1501872915.3,286046995.0,N
1501872935.1,286046997.1,N
1501872955.9,286046997.2,N
1501872975.7,286046994.9,N
1501872995.5,286046995.0,N
1501873015.4,286046997.8,N
1501873035.2,286046995.5,N
1501873055.0,286046995.4,N
1501873055.9,286046995.4,N
1501873075.8,286046995.5,N
1501873095.6,286046995.8,N
1501873115.4,286046997.7,N
1501873135.3,286046995.5,N
1501873155.1,286046996.4,N
1501873156.0,286046996.4,N
1501873175.8,286046995.9,N
1501873195.7,286046995.5,N
